Flag for U.S.A. Weather past 2 weeks in Moreno Valley, California, U.S.A.

Now
64 °F

Clear.


Feels Like: 64 °F
Forecast: 52 / 73 °F
Wind: 3 mph from West

Location: Riverside / March Air Force Base

Current Time: Oct 25, 2014 at 11:08:54 PM

Latest Report: Oct 25, 2014 at 9:58 PM


Visibility: 10 mi

Pressure: 30.01 "Hg

Humidity: 63%

Dew point: 51 °F

Location of Moreno ValleyLocation

Historic Weather in Moreno Valley — Graph

°F

Moreno Valley temperature yesterday

Maximum temperature yesterday: 91 °F (at 1:58 PM)
Minimum temperature yesterday: 49 °F (at 6:58 AM)
Average temperature yesterday: 69 °F

Past Weeks' High & Low Weather Summary

 TemperatureHumidityPressure
High92 °F (Oct 13, 1:58 PM)100% (Oct 20, 7:58 AM)30.05 "Hg (Oct 20, 7:58 AM)
Low49 °F (Oct 23, 6:58 AM)6% (Oct 13, 11:58 AM)29.82 "Hg (Oct 18, 4:58 PM)
Average67 °F61%29.94 "Hg
* Reported Oct 10 9:58 PM — Oct 25 9:58 PM, Moreno Valley, Weather by CustomWeather, © 2014

Note: Actual official high and low records may vary slightly from our data, if they occured in-between our weather recording intervals... More about our weather records

Advertising

Moreno Valley weather history for previous 24 hours

 ConditionsComfort  
Time TempWeatherWind HumidityBarometerVisibility
9:58 PM
Oct 25
64 °FClear.3 mph63%30.01 "Hg10 mi
8:58 PM66 °FClear.6 mph58%30.01 "Hg10 mi
7:58 PM70 °FClear.6 mph47%29.99 "Hg10 mi
6:58 PM72 °FPassing clouds.5 mph39%29.98 "Hg10 mi
5:58 PM75 °FSunny.12 mph34%29.97 "Hg10 mi
4:58 PM80 °FSunny.15 mph26%29.98 "Hg10 mi
3:58 PM82 °FSunny.14 mph27%29.98 "Hg10 mi
2:58 PM83 °FPassing clouds.13 mph25%29.99 "Hg10 mi
1:58 PM85 °FPassing clouds.16 mph24%30.00 "Hg10 mi
12:58 PM84 °FSunny.8 mph26%30.01 "Hg10 mi
11:58 AM82 °FSunny.1 mph27%30.03 "Hg10 mi
10:58 AM79 °FSunny.2 mph28%30.05 "Hg10 mi
9:58 AM72 °FSunny.No wind34%30.05 "Hg10 mi
8:58 AM67 °FSunny.5 mph39%30.04 "Hg10 mi
7:58 AM63 °FPassing clouds.No wind41%30.02 "Hg10 mi
6:58 AM61 °FPassing clouds.No wind42%30.01 "Hg10 mi
5:58 AM61 °FPassing clouds.1 mph42%30.00 "Hg10 mi
4:58 AM59 °FPassing clouds.No wind40%29.98 "Hg10 mi
3:58 AM59 °FPassing clouds.3 mph42%29.98 "Hg10 mi
2:58 AM57 °FPassing clouds.No wind41%30.00 "Hg10 mi
1:58 AM58 °FClear.1 mph42%30.01 "Hg10 mi
12:58 AM59 °FClear.2 mphN/A30.02 "Hg10 mi
11:58 PM
Oct 24
61 °FClear.No wind35%30.01 "Hg10 mi
Weather by CustomWeather, © 2014

See weather overviewHow to use our weather pages